Time,TemperatureF,DewpointF,PressureIn,WindDirection,WindDirectionDegrees,WindSpeedMPH,WindSpeedGustMPH,Humidity,HourlyPrecipIn,Conditions,Clouds,dailyrainin,SoftwareType,DateUTC
2013-03-20 00:00:00,28.5,20.6,30.15,NNW,338,3.0,3.0,72,0.00,,,0.00,Wunderground v.1.15,2013-03-20 05:00:00,
2013-03-20 00:05:00,28.5,20.6,30.15,WNW,298,3.0,5.0,72,0.00,,,0.00,Wunderground v.1.15,2013-03-20 05:05:00,
2013-03-20 00:15:00,29.0,20.4,30.15,NW,323,6.0,8.0,70,0.00,,,0.00,Wunderground v.1.15,2013-03-20 05:15:00,
2013-03-20 00:20:00,29.1,20.9,30.15,NW,318,7.0,7.0,71,0.00,,,0.00,Wunderground v.1.15,2013-03-20 05:20:00,
2013-03-20 00:25:00,29.0,20.8,30.15,WNW,293,6.0,7.0,71,0.00,,,0.00,Wunderground v.1.15,2013-03-20 05:25:00,
2013-03-20 00:30:00,29.0,21.1,30.14,North,356,6.0,6.0,72,0.00,,,0.00,Wunderground v.1.15,2013-03-20 05:30:00,
2013-03-20 00:35:00,28.9,21.3,30.15,WNW,302,6.0,6.0,73,0.00,,,0.00,Wunderground v.1.15,2013-03-20 05:35:00,
2013-03-20 00:45:00,28.6,21.4,30.14,NW,309,4.0,6.0,74,0.00,,,0.00,Wunderground v.1.15,2013-03-20 05:45:00,
2013-03-20 00:50:00,28.5,21.3,30.14,WNW,295,4.0,4.0,74,0.00,,,0.00,Wunderground v.1.15,2013-03-20 05:50:00,
2013-03-20 01:00:00,28.1,21.2,30.14,WNW,295,3.0,3.0,75,0.00,,,0.00,Wunderground v.1.15,2013-03-20 06:00:00,
2013-03-20 01:05:00,27.9,21.3,30.14,NW,321,3.0,3.0,76,0.00,,,0.00,Wunderground v.1.15,2013-03-20 06:05:00,
2013-03-20 01:10:00,27.7,20.8,30.14,West,279,3.0,3.0,75,0.00,,,0.00,Wunderground v.1.15,2013-03-20 06:10:00,
2013-03-20 01:15:00,27.5,20.9,30.14,WNW,285,4.0,4.0,76,0.00,,,0.00,Wunderground v.1.15,2013-03-20 06:15:00,
2013-03-20 01:25:00,27.3,20.7,30.14,NW,312,3.0,6.0,76,0.00,,,0.00,Wunderground v.1.15,2013-03-20 06:25:00,
2013-03-20 01:30:00,27.2,20.6,30.14,WNW,283,4.0,4.0,76,0.00,,,0.00,Wunderground v.1.15,2013-03-20 06:30:00,
2013-03-20 01:35:00,27.2,20.6,30.14,WNW,295,4.0,6.0,76,0.00,,,0.00,Wunderground v.1.15,2013-03-20 06:35:00,
2013-03-20 01:45:00,27.1,20.2,30.13,NNW,338,5.0,5.0,75,0.00,,,0.00,Wunderground v.1.15,2013-03-20 06:45:00,
2013-03-20 01:50:00,27.0,20.4,30.13,West,276,3.0,3.0,76,0.00,,,0.00,Wunderground v.1.15,2013-03-20 06:50:00,
2013-03-20 01:55:00,26.7,20.1,30.13,WNW,293,2.0,4.0,76,0.00,,,0.00,Wunderground v.1.15,2013-03-20 06:55:00,
2013-03-20 02:00:00,26.6,20.4,30.14,West,263,2.0,2.0,77,0.00,,,0.00,Wunderground v.1.15,2013-03-20 07:00:00,
2013-03-20 02:05:00,26.5,20.3,30.14,West,278,2.0,2.0,77,0.00,,,0.00,Wunderground v.1.15,2013-03-20 07:05:00,
2013-03-20 02:10:00,26.5,20.6,30.14,West,266,3.0,3.0,78,0.00,,,0.00,Wunderground v.1.15,2013-03-20 07:10:00,
2013-03-20 02:20:00,26.7,20.8,30.14,West,275,3.0,5.0,78,0.00,,,0.00,Wunderground v.1.15,2013-03-20 07:20:00,
2013-03-20 02:25:00,26.9,20.7,30.14,WNW,290,4.0,5.0,77,0.00,,,0.00,Wunderground v.1.15,2013-03-20 07:25:00,
2013-03-20 02:30:00,27.1,20.8,30.14,WNW,293,4.0,4.0,77,0.00,,,0.00,Wunderground v.1.15,2013-03-20 07:30:00,
2013-03-20 02:35:00,27.2,20.6,30.13,NW,310,4.0,11.0,76,0.00,,,0.00,Wunderground v.1.15,2013-03-20 07:35:00,
2013-03-20 02:45:00,27.1,20.5,30.13,WNW,289,6.0,7.0,76,0.00,,,0.00,Wunderground v.1.15,2013-03-20 07:45:00,
2013-03-20 02:50:00,27.0,20.7,30.13,NNW,336,6.0,6.0,77,0.00,,,0.00,Wunderground v.1.15,2013-03-20 07:50:00,
2013-03-20 02:55:00,26.8,20.6,30.13,NW,312,6.0,6.0,77,0.00,,,0.00,Wunderground v.1.15,2013-03-20 07:55:00,
2013-03-20 03:00:00,26.7,19.5,30.13,NNW,333,7.0,12.0,74,0.00,,,0.00,Wunderground v.1.15,2013-03-20 08:00:00,
2013-03-20 03:05:00,26.6,19.4,30.13,NW,316,9.0,12.0,74,0.00,,,0.00,Wunderground v.1.15,2013-03-20 08:05:00,
2013-03-20 03:10:00,26.5,19.0,30.13,NNW,335,9.0,13.0,73,0.00,,,0.00,Wunderground v.1.15,2013-03-20 08:10:00,
2013-03-20 03:15:00,26.3,18.8,30.13,WNW,302,9.0,13.0,73,0.00,,,0.00,Wunderground v.1.15,2013-03-20 08:15:00,
2013-03-20 03:20:00,26.1,18.6,30.14,NNW,342,9.0,9.0,73,0.00,,,0.00,Wunderground v.1.15,2013-03-20 08:20:00,
2013-03-20 03:25:00,25.8,18.3,30.14,NNW,338,8.0,12.0,73,0.00,,,0.00,Wunderground v.1.15,2013-03-20 08:25:00,
2013-03-20 03:30:00,25.5,18.4,30.14,NW,323,8.0,8.0,74,0.00,,,0.00,Wunderground v.1.15,2013-03-20 08:30:00,
2013-03-20 03:35:00,25.3,18.5,30.14,NNW,340,8.0,15.0,75,0.00,,,0.00,Wunderground v.1.15,2013-03-20 08:35:00,
2013-03-20 03:40:00,25.2,18.4,30.13,NW,312,9.0,9.0,75,0.00,,,0.00,Wunderground v.1.15,2013-03-20 08:40:00,
2013-03-20 03:45:00,25.1,18.3,30.13,WNW,293,9.0,9.0,75,0.00,,,0.00,Wunderground v.1.15,2013-03-20 08:45:00,
2013-03-20 03:50:00,24.9,18.4,30.14,WNW,302,9.0,9.0,76,0.00,,,0.00,Wunderground v.1.15,2013-03-20 08:50:00,
2013-03-20 03:55:00,24.8,18.3,30.14,NW,306,8.0,9.0,76,0.00,,,0.00,Wunderground v.1.15,2013-03-20 08:55:00,
2013-03-20 04:00:00,24.8,18.6,30.13,WNW,293,8.0,10.0,77,0.00,,,0.00,Wunderground v.1.15,2013-03-20 09:00:00,
2013-03-20 04:05:00,24.7,18.5,30.14,WNW,293,8.0,10.0,77,0.00,,,0.00,Wunderground v.1.15,2013-03-20 09:05:00,
2013-03-20 04:10:00,24.6,18.4,30.14,NW,325,9.0,11.0,77,0.00,,,0.00,Wunderground v.1.15,2013-03-20 09:10:00,
2013-03-20 04:15:00,24.6,18.4,30.14,North,352,8.0,11.0,77,0.00,,,0.00,Wunderground v.1.15,2013-03-20 09:15:00,
2013-03-20 04:20:00,24.4,18.2,30.14,NW,324,7.0,10.0,77,0.00,,,0.00,Wunderground v.1.15,2013-03-20 09:20:00,
2013-03-20 04:25:00,24.2,18.0,30.14,NW,316,7.0,10.0,77,0.00,,,0.00,Wunderground v.1.15,2013-03-20 09:25:00,
2013-03-20 04:35:00,23.3,16.9,30.15,North,350,6.0,7.0,76,0.00,,,0.00,Wunderground v.1.15,2013-03-20 09:35:00,
2013-03-20 04:40:00,22.9,16.8,30.15,North,349,6.0,6.0,77,0.00,,,0.00,Wunderground v.1.15,2013-03-20 09:40:00,
2013-03-20 04:45:00,22.5,16.7,30.14,WNW,302,6.0,6.0,78,0.00,,,0.00,Wunderground v.1.15,2013-03-20 09:45:00,
2013-03-20 04:50:00,22.2,16.7,30.15,NW,324,7.0,7.0,79,0.00,,,0.00,Wunderground v.1.15,2013-03-20 09:50:00,
2013-03-20 04:55:00,22.1,16.6,30.15,NNW,348,8.0,8.0,79,0.00,,,0.00,Wunderground v.1.15,2013-03-20 09:55:00,
2013-03-20 05:00:00,22.0,16.5,30.15,NNW,332,8.0,12.0,79,0.00,,,0.00,Wunderground v.1.15,2013-03-20 10:00:00,
2013-03-20 05:05:00,21.9,16.1,30.15,WNW,288,8.0,12.0,78,0.00,,,0.00,Wunderground v.1.15,2013-03-20 10:05:00,
2013-03-20 05:10:00,21.5,15.7,30.16,NW,316,7.0,7.0,78,0.00,,,0.00,Wunderground v.1.15,2013-03-20 10:10:00,
2013-03-20 05:15:00,21.1,14.1,30.16,NW,308,8.0,8.0,74,0.00,,,0.00,Wunderground v.1.15,2013-03-20 10:15:00,
2013-03-20 05:20:00,20.6,13.6,30.16,NW,305,9.0,9.0,74,0.00,,,0.00,Wunderground v.1.15,2013-03-20 10:20:00,
2013-03-20 05:25:00,20.1,11.2,30.16,NW,314,9.0,9.0,68,0.00,,,0.00,Wunderground v.1.15,2013-03-20 10:25:00,
2013-03-20 05:30:00,19.4,10.6,30.17,WNW,302,9.0,9.0,68,0.00,,,0.00,Wunderground v.1.15,2013-03-20 10:30:00,
2013-03-20 05:35:00,18.8,10.3,30.17,NW,316,9.0,13.0,69,0.00,,,0.00,Wunderground v.1.15,2013-03-20 10:35:00,
2013-03-20 05:45:00,18.3,10.1,30.17,NNW,340,8.0,9.0,70,0.00,,,0.00,Wunderground v.1.15,2013-03-20 10:45:00,
2013-03-20 05:50:00,18.1,10.6,30.17,NNW,330,7.0,10.0,72,0.00,,,0.00,Wunderground v.1.15,2013-03-20 10:50:00,
2013-03-20 05:55:00,18.1,10.6,30.18,NNW,346,7.0,10.0,72,0.00,,,0.00,Wunderground v.1.15,2013-03-20 10:55:00,
2013-03-20 06:00:00,18.0,10.8,30.18,WNW,296,7.0,8.0,73,0.00,,,0.00,Wunderground v.1.15,2013-03-20 11:00:00,
2013-03-20 06:05:00,18.0,11.1,30.18,NNW,342,6.0,8.0,74,0.00,,,0.00,Wunderground v.1.15,2013-03-20 11:05:00,
2013-03-20 06:10:00,17.9,11.3,30.18,NNW,333,5.0,5.0,75,0.00,,,0.00,Wunderground v.1.15,2013-03-20 11:10:00,
2013-03-20 06:15:00,17.9,11.3,30.18,WNW,288,6.0,6.0,75,0.00,,,0.00,Wunderground v.1.15,2013-03-20 11:15:00,
2013-03-20 06:20:00,17.9,11.6,30.18,NNW,338,7.0,7.0,76,0.00,,,0.00,Wunderground v.1.15,2013-03-20 11:20:00,
2013-03-20 06:30:00,17.7,11.4,30.19,WNW,293,6.0,8.0,76,0.00,,,0.00,Wunderground v.1.15,2013-03-20 11:30:00,
2013-03-20 06:35:00,17.5,10.6,30.19,NW,324,8.0,8.0,74,0.00,,,0.00,Wunderground v.1.15,2013-03-20 11:35:00,
2013-03-20 06:40:00,17.3,10.7,30.19,WNW,286,8.0,8.0,75,0.00,,,0.00,Wunderground v.1.15,2013-03-20 11:40:00,
2013-03-20 06:45:00,17.2,10.6,30.19,NW,321,8.0,15.0,75,0.00,,,0.00,Wunderground v.1.15,2013-03-20 11:45:00,
2013-03-20 06:50:00,17.1,10.8,30.19,WNW,302,9.0,9.0,76,0.00,,,0.00,Wunderground v.1.15,2013-03-20 11:50:00,
2013-03-20 07:00:00,16.9,10.3,30.20,NW,304,7.0,7.0,75,0.00,,,0.00,Wunderground v.1.15,2013-03-20 12:00:00,
2013-03-20 07:05:00,16.8,10.2,30.20,WNW,288,6.0,8.0,75,0.00,,,0.00,Wunderground v.1.15,2013-03-20 12:05:00,
2013-03-20 07:10:00,16.7,10.4,30.20,WNW,293,6.0,6.0,76,0.00,,,0.00,Wunderground v.1.15,2013-03-20 12:10:00,
2013-03-20 07:15:00,16.6,10.3,30.20,WNW,300,6.0,6.0,76,0.00,,,0.00,Wunderground v.1.15,2013-03-20 12:15:00,
2013-03-20 07:20:00,16.6,10.3,30.20,WSW,258,5.0,11.0,76,0.00,,,0.00,Wunderground v.1.15,2013-03-20 12:20:00,
2013-03-20 07:25:00,16.5,9.7,30.20,WSW,242,6.0,11.0,74,0.00,,,0.00,Wunderground v.1.15,2013-03-20 12:25:00,
2013-03-20 07:30:00,16.5,9.7,30.20,WNW,302,8.0,8.0,74,0.00,,,0.00,Wunderground v.1.15,2013-03-20 12:30:00,
2013-03-20 07:35:00,16.5,9.4,30.20,North,356,8.0,8.0,73,0.00,,,0.00,Wunderground v.1.15,2013-03-20 12:35:00,
2013-03-20 07:40:00,16.6,9.1,30.21,NW,316,8.0,8.0,72,0.00,,,0.00,Wunderground v.1.15,2013-03-20 12:40:00,
2013-03-20 07:45:00,16.6,8.5,30.21,West,273,8.0,8.0,70,0.00,,,0.00,Wunderground v.1.15,2013-03-20 12:45:00,
2013-03-20 07:50:00,16.7,8.6,30.21,NW,314,9.0,9.0,70,0.00,,,0.00,Wunderground v.1.15,2013-03-20 12:50:00,
2013-03-20 07:55:00,16.8,9.3,30.21,WNW,302,8.0,10.0,72,0.00,,,0.00,Wunderground v.1.15,2013-03-20 12:55:00,
2013-03-20 08:00:00,16.9,9.1,30.21,WNW,287,7.0,8.0,71,0.00,,,0.00,Wunderground v.1.15,2013-03-20 13:00:00,
2013-03-20 08:05:00,16.7,8.6,30.21,WNW,302,9.0,10.0,70,0.00,,,0.00,Wunderground v.1.15,2013-03-20 13:05:00,
2013-03-20 08:15:00,16.9,8.8,30.21,NW,309,10.0,12.0,70,0.00,,,0.00,Wunderground v.1.15,2013-03-20 13:15:00,
2013-03-20 08:20:00,16.9,8.5,30.21,West,262,10.0,10.0,69,0.00,,,0.00,Wunderground v.1.15,2013-03-20 13:20:00,
2013-03-20 08:25:00,17.1,8.7,30.20,WNW,300,9.0,15.0,69,0.00,,,0.00,Wunderground v.1.15,2013-03-20 13:25:00,
2013-03-20 08:30:00,17.2,8.4,30.20,West,262,8.0,9.0,68,0.00,,,0.00,Wunderground v.1.15,2013-03-20 13:30:00,
2013-03-20 08:40:00,17.3,7.5,30.20,NW,316,10.0,10.0,65,0.00,,,0.00,Wunderground v.1.15,2013-03-20 13:40:00,
2013-03-20 08:45:00,17.4,8.0,30.20,WNW,302,11.0,11.0,66,0.00,,,0.00,Wunderground v.1.15,2013-03-20 13:45:00,
2013-03-20 08:50:00,17.6,7.5,30.20,WNW,288,11.0,11.0,64,0.00,,,0.00,Wunderground v.1.15,2013-03-20 13:50:00,
2013-03-20 08:55:00,17.9,7.8,30.20,NW,322,11.0,11.0,64,0.00,,,0.00,Wunderground v.1.15,2013-03-20 13:55:00,
2013-03-20 09:00:00,18.0,8.2,30.20,WNW,293,10.0,10.0,65,0.00,,,0.00,Wunderground v.1.15,2013-03-20 14:00:00,
2013-03-20 09:05:00,18.5,8.7,30.20,WNW,286,8.0,10.0,65,0.00,,,0.00,Wunderground v.1.15,2013-03-20 14:05:00,
2013-03-20 09:10:00,18.6,8.4,30.20,NNE,15,8.0,12.0,64,0.00,,,0.00,Wunderground v.1.15,2013-03-20 14:10:00,
2013-03-20 09:15:00,18.8,7.6,30.20,North,9,9.0,12.0,61,0.00,,,0.00,Wunderground v.1.15,2013-03-20 14:15:00,
2013-03-20 09:20:00,18.8,7.9,30.20,NW,321,10.0,10.0,62,0.00,,,0.00,Wunderground v.1.15,2013-03-20 14:20:00,
2013-03-20 09:25:00,19.1,8.6,30.20,West,260,9.0,10.0,63,0.00,,,0.00,Wunderground v.1.15,2013-03-20 14:25:00,
2013-03-20 09:30:00,19.2,7.9,30.20,WNW,296,9.0,11.0,61,0.00,,,0.00,Wunderground v.1.15,2013-03-20 14:30:00,
2013-03-20 09:35:00,19.4,9.2,30.20,West,281,9.0,11.0,64,0.00,,,0.00,Wunderground v.1.15,2013-03-20 14:35:00,
2013-03-20 09:40:00,19.5,8.6,30.20,WNW,293,9.0,9.0,62,0.00,,,0.00,Wunderground v.1.15,2013-03-20 14:40:00,
2013-03-20 09:45:00,20.0,9.1,30.20,NW,322,8.0,9.0,62,0.00,,,0.00,Wunderground v.1.15,2013-03-20 14:45:00,
2013-03-20 09:50:00,20.0,8.7,30.20,NNW,342,8.0,9.0,61,0.00,,,0.00,Wunderground v.1.15,2013-03-20 14:50:00,
2013-03-20 09:55:00,19.8,7.8,30.20,NW,312,9.0,10.0,59,0.00,,,0.00,Wunderground v.1.15,2013-03-20 14:55:00,
2013-03-20 10:00:00,19.8,7.4,30.20,NNW,328,10.0,10.0,58,0.00,,,0.00,Wunderground v.1.15,2013-03-20 15:00:00,
2013-03-20 10:05:00,20.3,7.9,30.20,West,264,9.0,10.0,58,0.00,,,0.00,Wunderground v.1.15,2013-03-20 15:05:00,
2013-03-20 10:10:00,20.4,8.0,30.20,West,267,8.0,9.0,58,0.00,,,0.00,Wunderground v.1.15,2013-03-20 15:10:00,
2013-03-20 10:15:00,20.4,8.0,30.20,West,263,9.0,9.0,58,0.00,,,0.00,Wunderground v.1.15,2013-03-20 15:15:00,
2013-03-20 10:20:00,20.6,8.5,30.20,West,273,9.0,9.0,59,0.00,,,0.00,Wunderground v.1.15,2013-03-20 15:20:00,
2013-03-20 10:25:00,20.5,7.3,30.20,WNW,296,9.0,9.0,56,0.00,,,0.00,Wunderground v.1.15,2013-03-20 15:25:00,
2013-03-20 10:30:00,20.8,7.9,30.20,WNW,294,9.0,19.0,57,0.00,,,0.00,Wunderground v.1.15,2013-03-20 15:30:00,
2013-03-20 10:35:00,20.6,6.2,30.20,WNW,297,9.0,19.0,53,0.00,,,0.00,Wunderground v.1.15,2013-03-20 15:35:00,
2013-03-20 10:40:00,20.9,7.6,30.20,NW,319,10.0,10.0,56,0.00,,,0.00,Wunderground v.1.15,2013-03-20 15:40:00,
2013-03-20 10:45:00,21.1,8.2,30.20,WNW,284,9.0,17.0,57,0.00,,,0.00,Wunderground v.1.15,2013-03-20 15:45:00,
2013-03-20 10:50:00,21.4,8.1,30.20,WNW,288,9.0,9.0,56,0.00,,,0.00,Wunderground v.1.15,2013-03-20 15:50:00,
2013-03-20 10:55:00,21.5,8.2,30.20,NW,309,9.0,14.0,56,0.00,,,0.00,Wunderground v.1.15,2013-03-20 15:55:00,
2013-03-20 11:00:00,21.5,8.2,30.20,WNW,290,10.0,10.0,56,0.00,,,0.00,Wunderground v.1.15,2013-03-20 16:00:00,
2013-03-20 11:10:00,21.8,8.1,30.20,WNW,283,10.0,14.0,55,0.00,,,0.00,Wunderground v.1.15,2013-03-20 16:10:00,
2013-03-20 11:15:00,21.9,8.6,30.21,West,271,10.0,14.0,56,0.00,,,0.00,Wunderground v.1.15,2013-03-20 16:15:00,
2013-03-20 11:20:00,22.1,8.4,30.20,NNW,340,10.0,10.0,55,0.00,,,0.00,Wunderground v.1.15,2013-03-20 16:20:00,
2013-03-20 11:25:00,22.2,8.5,30.20,WNW,294,11.0,11.0,55,0.00,,,0.00,Wunderground v.1.15,2013-03-20 16:25:00,
2013-03-20 11:30:00,22.7,8.5,30.20,WSW,255,9.0,9.0,54,0.00,,,0.00,Wunderground v.1.15,2013-03-20 16:30:00,
2013-03-20 11:35:00,22.7,8.1,30.20,NW,316,8.0,9.0,53,0.00,,,0.00,Wunderground v.1.15,2013-03-20 16:35:00,
2013-03-20 11:40:00,22.9,8.3,30.20,WNW,287,9.0,9.0,53,0.00,,,0.00,Wunderground v.1.15,2013-03-20 16:40:00,
2013-03-20 11:45:00,23.4,7.9,30.20,WNW,294,9.0,12.0,51,0.00,,,0.00,Wunderground v.1.15,2013-03-20 16:45:00,
2013-03-20 11:50:00,23.3,7.8,30.20,WNW,297,10.0,10.0,51,0.00,,,0.00,Wunderground v.1.15,2013-03-20 16:50:00,
2013-03-20 11:55:00,23.4,7.9,30.19,NW,316,11.0,14.0,51,0.00,,,0.00,Wunderground v.1.15,2013-03-20 16:55:00,
2013-03-20 12:00:00,23.7,8.2,30.19,WNW,290,10.0,10.0,51,0.00,,,0.00,Wunderground v.1.15,2013-03-20 17:00:00,
2013-03-20 12:05:00,23.8,8.3,30.19,West,268,8.0,10.0,51,0.00,,,0.00,Wunderground v.1.15,2013-03-20 17:05:00,
2013-03-20 12:10:00,24.0,8.0,30.19,West,275,8.0,8.0,50,0.00,,,0.00,Wunderground v.1.15,2013-03-20 17:10:00,
2013-03-20 12:15:00,23.9,8.4,30.19,WNW,294,9.0,9.0,51,0.00,,,0.00,Wunderground v.1.15,2013-03-20 17:15:00,
2013-03-20 12:20:00,24.4,9.3,30.18,WNW,289,9.0,9.0,52,0.00,,,0.00,Wunderground v.1.15,2013-03-20 17:20:00,
2013-03-20 12:25:00,24.9,9.3,30.18,West,260,8.0,9.0,51,0.00,,,0.00,Wunderground v.1.15,2013-03-20 17:25:00,
2013-03-20 12:30:00,24.9,8.0,30.18,NW,325,8.0,13.0,48,0.00,,,0.00,Wunderground v.1.15,2013-03-20 17:30:00,
2013-03-20 12:35:00,24.5,8.5,30.18,NW,319,11.0,13.0,50,0.00,,,0.00,Wunderground v.1.15,2013-03-20 17:35:00,
2013-03-20 12:40:00,24.6,7.7,30.18,WNW,295,11.0,14.0,48,0.00,,,0.00,Wunderground v.1.15,2013-03-20 17:40:00,
2013-03-20 12:45:00,24.6,8.6,30.17,NNW,347,11.0,14.0,50,0.00,,,0.00,Wunderground v.1.15,2013-03-20 17:45:00,
2013-03-20 12:50:00,25.3,8.3,30.18,WNW,291,10.0,10.0,48,0.00,,,0.00,Wunderground v.1.15,2013-03-20 17:50:00,
2013-03-20 12:55:00,25.4,10.6,30.17,West,266,8.0,14.0,53,0.00,,,0.00,Wunderground v.1.15,2013-03-20 17:55:00,
2013-03-20 13:00:00,25.8,9.2,30.17,WNW,294,8.0,11.0,49,0.00,,,0.00,Wunderground v.1.15,2013-03-20 18:00:00,
2013-03-20 13:05:00,25.5,8.5,30.17,WNW,282,9.0,11.0,48,0.00,,,0.00,Wunderground v.1.15,2013-03-20 18:05:00,
2013-03-20 13:10:00,25.6,9.1,30.17,NNW,336,11.0,11.0,49,0.00,,,0.00,Wunderground v.1.15,2013-03-20 18:10:00,
2013-03-20 13:15:00,26.1,9.5,30.17,West,275,11.0,14.0,49,0.00,,,0.00,Wunderground v.1.15,2013-03-20 18:15:00,
2013-03-20 13:20:00,26.2,9.2,30.17,West,280,10.0,12.0,48,0.00,,,0.00,Wunderground v.1.15,2013-03-20 18:20:00,
2013-03-20 13:30:00,26.7,10.5,30.16,West,278,10.0,12.0,50,0.00,,,0.00,Wunderground v.1.15,2013-03-20 18:30:00,
2013-03-20 13:35:00,26.9,9.3,30.16,NNW,334,10.0,14.0,47,0.00,,,0.00,Wunderground v.1.15,2013-03-20 18:35:00,
2013-03-20 13:40:00,26.7,9.1,30.16,WNW,302,9.0,9.0,47,0.00,,,0.00,Wunderground v.1.15,2013-03-20 18:40:00,
2013-03-20 13:45:00,27.2,10.1,30.16,North,352,8.0,9.0,48,0.00,,,0.00,Wunderground v.1.15,2013-03-20 18:45:00,
2013-03-20 13:50:00,27.5,9.9,30.15,WNW,294,8.0,13.0,47,0.00,,,0.00,Wunderground v.1.15,2013-03-20 18:50:00,
2013-03-20 13:55:00,27.6,10.4,30.15,West,281,9.0,13.0,48,0.00,,,0.00,Wunderground v.1.15,2013-03-20 18:55:00,
2013-03-20 14:00:00,27.6,10.4,30.15,West,271,9.0,9.0,48,0.00,,,0.00,Wunderground v.1.15,2013-03-20 19:00:00,
2013-03-20 14:10:00,27.6,10.4,30.15,WNW,287,10.0,13.0,48,0.00,,,0.00,Wunderground v.1.15,2013-03-20 19:10:00,
2013-03-20 14:15:00,27.9,10.7,30.15,NNW,347,9.0,13.0,48,0.00,,,0.00,Wunderground v.1.15,2013-03-20 19:15:00,
2013-03-20 14:20:00,28.1,9.9,30.14,NW,324,9.0,9.0,46,0.00,,,0.00,Wunderground v.1.15,2013-03-20 19:20:00,
2013-03-20 14:25:00,27.8,10.2,30.13,NW,319,9.0,10.0,47,0.00,,,0.00,Wunderground v.1.15,2013-03-20 19:25:00,
2013-03-20 14:30:00,28.2,11.5,30.13,NW,304,9.0,13.0,49,0.00,,,0.00,Wunderground v.1.15,2013-03-20 19:30:00,
2013-03-20 14:35:00,28.7,11.5,30.14,NNW,336,10.0,13.0,48,0.00,,,0.00,Wunderground v.1.15,2013-03-20 19:35:00,
2013-03-20 14:45:00,27.8,11.1,30.14,WNW,302,11.0,15.0,49,0.00,,,0.00,Wunderground v.1.15,2013-03-20 19:45:00,
2013-03-20 14:50:00,28.3,10.1,30.13,WNW,295,9.0,13.0,46,0.00,,,0.00,Wunderground v.1.15,2013-03-20 19:50:00,
2013-03-20 14:55:00,28.2,9.0,30.13,NW,318,10.0,13.0,44,0.00,,,0.00,Wunderground v.1.15,2013-03-20 19:55:00,
2013-03-20 15:00:00,27.7,9.6,30.12,WNW,298,12.0,12.0,46,0.00,,,0.00,Wunderground v.1.15,2013-03-20 20:00:00,
2013-03-20 15:05:00,28.1,10.9,30.13,WNW,287,11.0,12.0,48,0.00,,,0.00,Wunderground v.1.15,2013-03-20 20:05:00,
2013-03-20 15:10:00,28.5,10.8,30.12,WNW,290,9.0,12.0,47,0.00,,,0.00,Wunderground v.1.15,2013-03-20 20:10:00,
2013-03-20 15:15:00,28.7,10.5,30.12,WNW,283,10.0,12.0,46,0.00,,,0.00,Wunderground v.1.15,2013-03-20 20:15:00,
2013-03-20 15:20:00,28.5,10.8,30.12,WNW,283,9.0,9.0,47,0.00,,,0.00,Wunderground v.1.15,2013-03-20 20:20:00,
2013-03-20 15:25:00,28.9,11.2,30.12,West,271,9.0,14.0,47,0.00,,,0.00,Wunderground v.1.15,2013-03-20 20:25:00,
2013-03-20 15:30:00,28.5,10.8,30.12,West,270,10.0,12.0,47,0.00,,,0.00,Wunderground v.1.15,2013-03-20 20:30:00,
2013-03-20 15:35:00,28.6,10.9,30.12,West,280,11.0,12.0,47,0.00,,,0.00,Wunderground v.1.15,2013-03-20 20:35:00,
2013-03-20 15:40:00,28.7,10.5,30.12,WNW,283,10.0,10.0,46,0.00,,,0.00,Wunderground v.1.15,2013-03-20 20:40:00,
2013-03-20 15:45:00,28.5,9.8,30.12,NW,316,10.0,11.0,45,0.00,,,0.00,Wunderground v.1.15,2013-03-20 20:45:00,
2013-03-20 15:50:00,28.4,11.6,30.12,West,276,11.0,11.0,49,0.00,,,0.00,Wunderground v.1.15,2013-03-20 20:50:00,
2013-03-20 15:55:00,28.7,10.5,30.12,WNW,295,10.0,11.0,46,0.00,,,0.00,Wunderground v.1.15,2013-03-20 20:55:00,
2013-03-20 16:00:00,29.0,11.3,30.12,WNW,297,10.0,13.0,47,0.00,,,0.00,Wunderground v.1.15,2013-03-20 21:00:00,
2013-03-20 16:05:00,28.5,11.7,30.12,WNW,293,10.0,13.0,49,0.00,,,0.00,Wunderground v.1.15,2013-03-20 21:05:00,
2013-03-20 16:10:00,28.6,10.4,30.12,WNW,285,9.0,10.0,46,0.00,,,0.00,Wunderground v.1.15,2013-03-20 21:10:00,
2013-03-20 16:15:00,28.3,11.1,30.12,WNW,284,8.0,14.0,48,0.00,,,0.00,Wunderground v.1.15,2013-03-20 21:15:00,
2013-03-20 16:25:00,28.2,11.0,30.12,SW,235,9.0,10.0,48,0.00,,,0.00,Wunderground v.1.15,2013-03-20 21:25:00,
2013-03-20 16:30:00,28.1,10.9,30.12,WNW,296,9.0,14.0,48,0.00,,,0.00,Wunderground v.1.15,2013-03-20 21:30:00,
2013-03-20 16:35:00,27.8,11.1,30.11,NNW,328,12.0,14.0,49,0.00,,,0.00,Wunderground v.1.15,2013-03-20 21:35:00,
2013-03-20 16:40:00,27.9,11.6,30.11,NW,319,12.0,12.0,50,0.00,,,0.00,Wunderground v.1.15,2013-03-20 21:40:00,
2013-03-20 16:45:00,28.4,12.1,30.11,NW,318,9.0,12.0,50,0.00,,,0.00,Wunderground v.1.15,2013-03-20 21:45:00,
2013-03-20 16:50:00,28.0,10.3,30.11,West,259,10.0,10.0,47,0.00,,,0.00,Wunderground v.1.15,2013-03-20 21:50:00,
2013-03-20 16:55:00,28.0,10.3,30.12,WNW,293,11.0,11.0,47,0.00,,,0.00,Wunderground v.1.15,2013-03-20 21:55:00,
2013-03-20 17:00:00,27.5,10.8,30.12,West,281,9.0,11.0,49,0.00,,,0.00,Wunderground v.1.15,2013-03-20 22:00:00,
2013-03-20 17:05:00,27.1,10.4,30.12,NW,304,9.0,11.0,49,0.00,,,0.00,Wunderground v.1.15,2013-03-20 22:05:00,
2013-03-20 17:10:00,27.0,10.8,30.12,WNW,295,10.0,11.0,50,0.00,,,0.00,Wunderground v.1.15,2013-03-20 22:10:00,
2013-03-20 17:15:00,26.9,10.7,30.12,NW,314,10.0,11.0,50,0.00,,,0.00,Wunderground v.1.15,2013-03-20 22:15:00,
2013-03-20 17:20:00,26.9,10.7,30.12,West,280,11.0,11.0,50,0.00,,,0.00,Wunderground v.1.15,2013-03-20 22:20:00,
2013-03-20 17:25:00,27.0,10.4,30.12,NNW,345,11.0,11.0,49,0.00,,,0.00,Wunderground v.1.15,2013-03-20 22:25:00,
2013-03-20 17:35:00,26.5,10.3,30.12,NW,323,10.0,10.0,50,0.00,,,0.00,Wunderground v.1.15,2013-03-20 22:35:00,
2013-03-20 17:40:00,26.6,10.9,30.12,NNW,328,10.0,11.0,51,0.00,,,0.00,Wunderground v.1.15,2013-03-20 22:40:00,
2013-03-20 17:45:00,26.5,10.8,30.12,SSW,212,11.0,12.0,51,0.00,,,0.00,Wunderground v.1.15,2013-03-20 22:45:00,
2013-03-20 17:50:00,26.6,10.9,30.12,NW,313,11.0,16.0,51,0.00,,,0.00,Wunderground v.1.15,2013-03-20 22:50:00,
2013-03-20 17:55:00,26.6,11.3,30.12,West,281,9.0,16.0,52,0.00,,,0.00,Wunderground v.1.15,2013-03-20 22:55:00,
2013-03-20 18:00:00,26.3,10.2,30.12,WNW,287,9.0,9.0,50,0.00,,,0.00,Wunderground v.1.15,2013-03-20 23:00:00,
2013-03-20 18:05:00,26.0,10.3,30.12,West,281,9.0,12.0,51,0.00,,,0.00,Wunderground v.1.15,2013-03-20 23:05:00,
2013-03-20 18:10:00,25.9,9.8,30.12,NW,304,9.0,9.0,50,0.00,,,0.00,Wunderground v.1.15,2013-03-20 23:10:00,
2013-03-20 18:15:00,26.1,10.9,30.12,WNW,302,9.0,14.0,52,0.00,,,0.00,Wunderground v.1.15,2013-03-20 23:15:00,
2013-03-20 18:20:00,26.1,10.9,30.12,West,274,7.0,8.0,52,0.00,,,0.00,Wunderground v.1.15,2013-03-20 23:20:00,
2013-03-20 18:25:00,26.0,10.3,30.12,WSW,253,8.0,10.0,51,0.00,,,0.00,Wunderground v.1.15,2013-03-20 23:25:00,
2013-03-20 18:30:00,25.9,10.7,30.12,WNW,284,8.0,15.0,52,0.00,,,0.00,Wunderground v.1.15,2013-03-20 23:30:00,
2013-03-20 18:35:00,25.8,10.6,30.12,West,276,8.0,15.0,52,0.00,,,0.00,Wunderground v.1.15,2013-03-20 23:35:00,
2013-03-20 18:40:00,25.7,10.9,30.12,West,277,7.0,7.0,53,0.00,,,0.00,Wunderground v.1.15,2013-03-20 23:40:00,
2013-03-20 18:45:00,25.6,10.8,30.12,West,278,7.0,7.0,53,0.00,,,0.00,Wunderground v.1.15,2013-03-20 23:45:00,
2013-03-20 18:50:00,25.4,10.6,30.12,West,277,7.0,7.0,53,0.00,,,0.00,Wunderground v.1.15,2013-03-20 23:50:00,
2013-03-20 18:55:00,25.2,10.9,30.12,WNW,295,6.0,13.0,54,0.00,,,0.00,Wunderground v.1.15,2013-03-20 23:55:00,
2013-03-20 19:00:00,24.9,11.0,30.12,WNW,294,8.0,8.0,55,0.00,,,0.00,Wunderground v.1.15,2013-03-21 00:00:00,
2013-03-20 19:05:00,24.8,11.3,30.12,NW,304,9.0,10.0,56,0.00,,,0.00,Wunderground v.1.15,2013-03-21 00:05:00,
2013-03-20 19:10:00,24.7,11.2,30.12,WNW,292,7.0,9.0,56,0.00,,,0.00,Wunderground v.1.15,2013-03-21 00:10:00,
2013-03-20 19:15:00,24.6,11.1,30.12,NNW,342,6.0,9.0,56,0.00,,,0.00,Wunderground v.1.15,2013-03-21 00:15:00,
2013-03-20 19:20:00,24.3,11.2,30.12,North,356,6.0,6.0,57,0.00,,,0.00,Wunderground v.1.15,2013-03-21 00:20:00,
2013-03-20 19:25:00,24.2,11.1,30.12,WNW,300,6.0,6.0,57,0.00,,,0.00,Wunderground v.1.15,2013-03-21 00:25:00,
2013-03-20 19:35:00,23.9,11.3,30.12,WNW,293,6.0,7.0,58,0.00,,,0.00,Wunderground v.1.15,2013-03-21 00:35:00,
2013-03-20 19:45:00,23.5,11.6,30.11,NNW,338,5.0,5.0,60,0.00,,,0.00,Wunderground v.1.15,2013-03-21 00:45:00,
2013-03-20 19:50:00,23.5,11.3,30.11,WNW,293,6.0,7.0,59,0.00,,,0.00,Wunderground v.1.15,2013-03-21 00:50:00,
2013-03-20 19:55:00,23.4,11.2,30.11,West,281,7.0,7.0,59,0.00,,,0.00,Wunderground v.1.15,2013-03-21 00:55:00,
2013-03-20 20:00:00,23.4,11.9,30.12,NNW,333,5.0,5.0,61,0.00,,,0.00,Wunderground v.1.15,2013-03-21 01:00:00,
2013-03-20 20:05:00,23.3,11.4,30.12,NW,325,5.0,7.0,60,0.00,,,0.00,Wunderground v.1.15,2013-03-21 01:05:00,
2013-03-20 20:10:00,23.4,11.2,30.12,WNW,293,6.0,6.0,59,0.00,,,0.00,Wunderground v.1.15,2013-03-21 01:10:00,
2013-03-20 20:15:00,23.3,11.4,30.11,WNW,285,6.0,6.0,60,0.00,,,0.00,Wunderground v.1.15,2013-03-21 01:15:00,
2013-03-20 20:20:00,23.2,11.7,30.11,WNW,299,6.0,8.0,61,0.00,,,0.00,Wunderground v.1.15,2013-03-21 01:20:00,
2013-03-20 20:25:00,23.1,11.6,30.11,NNW,335,6.0,8.0,61,0.00,,,0.00,Wunderground v.1.15,2013-03-21 01:25:00,
2013-03-20 20:30:00,23.0,11.5,30.11,WNW,293,5.0,5.0,61,0.00,,,0.00,Wunderground v.1.15,2013-03-21 01:30:00,
2013-03-20 20:40:00,22.8,11.7,30.11,NW,306,5.0,5.0,62,0.00,,,0.00,Wunderground v.1.15,2013-03-21 01:40:00,
2013-03-20 20:45:00,22.7,12.0,30.11,West,263,4.0,5.0,63,0.00,,,0.00,Wunderground v.1.15,2013-03-21 01:45:00,
2013-03-20 20:55:00,22.5,11.8,30.11,NW,305,5.0,5.0,63,0.00,,,0.00,Wunderground v.1.15,2013-03-21 01:55:00,
2013-03-20 21:00:00,22.5,11.8,30.11,NNW,328,5.0,5.0,63,0.00,,,0.00,Wunderground v.1.15,2013-03-21 02:00:00,
2013-03-20 21:05:00,22.3,12.3,30.11,NW,319,4.0,5.0,65,0.00,,,0.00,Wunderground v.1.15,2013-03-21 02:05:00,
2013-03-20 21:10:00,22.3,12.3,30.11,North,8,4.0,4.0,65,0.00,,,0.00,Wunderground v.1.15,2013-03-21 02:10:00,
2013-03-20 21:20:00,22.2,12.2,30.11,WNW,302,7.0,7.0,65,0.00,,,0.00,Wunderground v.1.15,2013-03-21 02:20:00,
2013-03-20 21:25:00,22.1,12.1,30.11,NW,322,6.0,7.0,65,0.00,,,0.00,Wunderground v.1.15,2013-03-21 02:25:00,
2013-03-20 21:30:00,22.0,12.4,30.11,WNW,284,5.0,5.0,66,0.00,,,0.00,Wunderground v.1.15,2013-03-21 02:30:00,
2013-03-20 21:40:00,21.9,12.6,30.11,West,273,5.0,8.0,67,0.00,,,0.00,Wunderground v.1.15,2013-03-21 02:40:00,
2013-03-20 21:45:00,21.7,12.4,30.11,WNW,298,4.0,8.0,67,0.00,,,0.00,Wunderground v.1.15,2013-03-21 02:45:00,
2013-03-20 21:50:00,21.7,12.1,30.11,NW,314,5.0,6.0,66,0.00,,,0.00,Wunderground v.1.15,2013-03-21 02:50:00,
2013-03-20 22:00:00,21.7,12.1,30.11,WNW,302,6.0,6.0,66,0.00,,,0.00,Wunderground v.1.15,2013-03-21 03:00:00,
2013-03-20 22:05:00,21.6,12.3,30.11,NW,315,5.0,8.0,67,0.00,,,0.00,Wunderground v.1.15,2013-03-21 03:05:00,
2013-03-20 22:10:00,21.5,12.6,30.11,NW,310,5.0,5.0,68,0.00,,,0.00,Wunderground v.1.15,2013-03-21 03:10:00,
2013-03-20 22:15:00,21.3,12.4,30.11,NW,313,5.0,5.0,68,0.00,,,0.00,Wunderground v.1.15,2013-03-21 03:15:00,
2013-03-20 22:20:00,21.3,12.4,30.10,WNW,297,6.0,6.0,68,0.00,,,0.00,Wunderground v.1.15,2013-03-21 03:20:00,
2013-03-20 22:25:00,21.2,12.3,30.10,NW,311,6.0,8.0,68,0.00,,,0.00,Wunderground v.1.15,2013-03-21 03:25:00,
2013-03-20 22:35:00,21.2,12.3,30.11,NNW,332,7.0,7.0,68,0.00,,,0.00,Wunderground v.1.15,2013-03-21 03:35:00,
2013-03-20 22:40:00,21.1,12.2,30.11,NW,318,6.0,6.0,68,0.00,,,0.00,Wunderground v.1.15,2013-03-21 03:40:00,
2013-03-20 22:50:00,20.9,12.0,30.11,NNW,328,4.0,4.0,68,0.00,,,0.00,Wunderground v.1.15,2013-03-21 03:50:00,
2013-03-20 22:55:00,20.8,12.2,30.11,WNW,300,4.0,4.0,69,0.00,,,0.00,Wunderground v.1.15,2013-03-21 03:55:00,
2013-03-20 23:00:00,20.8,12.2,30.11,NW,305,5.0,6.0,69,0.00,,,0.00,Wunderground v.1.15,2013-03-21 04:00:00,
2013-03-20 23:05:00,20.8,11.9,30.11,NW,304,6.0,8.0,68,0.00,,,0.00,Wunderground v.1.15,2013-03-21 04:05:00,
2013-03-20 23:10:00,20.8,11.9,30.11,NNW,335,7.0,7.0,68,0.00,,,0.00,Wunderground v.1.15,2013-03-21 04:10:00,
2013-03-20 23:20:00,20.7,11.8,30.11,NW,304,6.0,6.0,68,0.00,,,0.00,Wunderground v.1.15,2013-03-21 04:20:00,
2013-03-20 23:30:00,20.5,11.9,30.10,WNW,302,6.0,6.0,69,0.00,,,0.00,Wunderground v.1.15,2013-03-21 04:30:00,
2013-03-20 23:35:00,20.4,11.8,30.10,NNW,332,6.0,6.0,69,0.00,,,0.00,Wunderground v.1.15,2013-03-21 04:35:00,
2013-03-20 23:40:00,20.4,11.8,30.10,NNW,335,6.0,6.0,69,0.00,,,0.00,Wunderground v.1.15,2013-03-21 04:40:00,
2013-03-20 23:45:00,20.3,11.7,30.10,NNW,333,6.0,8.0,69,0.00,,,0.00,Wunderground v.1.15,2013-03-21 04:45:00,
2013-03-20 23:50:00,20.2,12.0,30.10,WNW,297,6.0,7.0,70,0.00,,,0.00,Wunderground v.1.15,2013-03-21 04:50:00,
2013-03-20 23:55:00,20.2,12.0,30.09,NNW,334,6.0,7.0,70,0.00,,,0.00,Wunderground v.1.15,2013-03-21 04:55:00,